Theta_e
311 312 312 311 311 311 310 310 310 310 310 310 310 311 311 313 314 313 312 313 312 313 313 312 310 310 310 310 309 310 307 305 301 303 307 308 309 312 312 314 316 316 316
311 310 310 311 310 310 310 310 310 309 310 309 309 310 312 311 312 311 310 311 310 310 310 309 310 310 309 310 307 308 308 308 304 302 307 308 310 314 313 313 313 315 315
308 310 310 310 309 310 309 310 310 309 309 310 310 310 310 310 310 309 309 309 309 310 310 310 308 308 309 307 305 307 310 309 310 306 306 311 310 314 312 313 312 314 314
307 307 309 309 311 311 309 310 310 310 309 309 310 309 309 308 308 307 308 309 309 310 311 309 307 306 306 305 303 305 310 309 310 309 308 309 307 309 310 310 310 311 314
306 307 308 309 311 310 309 309 310 309 308 308 308 308 308 307 304 304 306 307 309 308 309 307 307 306 306 305 303 304 307 309 308 307 304 306 304 302 303 306 311 309 310
307 307 309 310 309 309 308 309 309 309 308 308 307 307 307 306 299 299 301 307 307 307 306 307 307 305 306 305 305 306 306 306 306 307 306 302 304 303 303 304 307 309 308
308 308 308 308 307 309 308 308 308 308 309 307 307 307 304 304 298 298 298 305 307 307 305 305 305 305 306 304 304 306 307 306 306 307 307 306 303 305 304 303 305 307 307
308 307 307 307 307 308 308 307 308 308 308 306 306 305 303 301 298 297 297 304 305 306 306 306 306 305 303 299 303 304 306 309 308 308 308 308 307 307 305 305 305 308 310
307 306 306 307 306 307 306 307 308 307 307 307 306 305 303 301 297 296 298 303 302 303 304 305 304 303 296 295 300 303 305 305 305 303 303 301 300 300 302 305 301 303 305
306 307 307 307 307 307 307 308 308 308 307 306 306 306 302 303 297 296 298 302 300 299 303 303 298 298 295 294 299 299 300 302 303 305 308 307 306 308 305 305 303 299 301
308 307 308 308 308 307 308 308 308 307 307 307 306 306 306 303 304 296 296 301 299 297 297 298 299 295 294 294 293 298 297 298 301 302 303 304 306 306 308 308 305 302 299
307 307 307 308 306 305 307 307 307 307 306 305 305 305 305 306 299 298 296 295 297 299 297 299 300 295 294 293 294 293 293 295 299 299 300 301 302 303 305 308 308 306 305
307 306 306 306 305 306 306 305 303 305 303 303 302 302 302 303 302 298 297 295 297 298 299 298 296 294 294 296 296 295 295 296 295 295 295 298 300 303 306 307 310 308 307
307 307 306 306 304 306 305 303 303 303 303 302 302 301 301 301 301 300 299 299 297 297 297 298 298 296 295 296 296 297 296 295 293 292 293 294 298 300 300 303 303 307 309
308 307 306 304 305 305 304 304 303 305 299 300 301 301 299 298 297 294 294 295 294 293 294 296 294 294 294 295 293 293 295 293 293 293 293 292 293 295 297 299 302 302 303
305 303 304 303 303 303 303 303 293 293 293 292 291 294 300 294 292 291 291 291 291 290 293 294 291 290 292 291 291 293 293 293 293 293 294 292 292 293 294 297 298 299 298
305 305 303 302 302 302 302 303 302 299 294 293 293 294 293 291 292 291 291 290 291 292 292 292 291 292 291 292 292 290 291 293 294 293 293 294 293 293 293 295 296 296 296
306 299 303 302 303 302 303 304 304 303 301 300 296 295 293 292 291 291 291 293 294 293 291 290 289 290 290 290 290 290 291 292 293 293 293 295 295 292 292 294 294 295 296
303 302 302 303 303 302 305 305 304 303 300 300 301 299 297 293 292 292 292 294 291 290 290 290 290 290 290 290 290 290 290 291 291 292 293 294 294 292 292 293 294 290 291
305 295 296 303 304 304 304 304 303 301 300 299 298 299 300 297 298 296 294 292 291 291 290 289 290 290 290 290 290 290 290 291 291 293 293 294 293 292 291 292 293 294 295
303 302 293 304 304 303 303 303 302 301 299 298 298 296 287 296 296 293 292 292 291 290 290 290 290 290 290 290 290 290 290 291 292 293 293 293 291 290 292 292 293 295 296
302 302 304 304 304 302 302 304 302 300 299 298 298 297 288 296 295 293 292 292 292 292 292 292 291 291 291 291 291 290 290 289 290 291 291 290 290 290 291 292 294 295 297
302 303 304 304 303 297 303 303 301 300 298 298 297 295 295 295 295 293 292 292 292 292 292 292 292 292 292 293 293 292 291 290 291 291 290 290 291 291 292 292 293 294 296
303 304 302 303 303 302 303 302 301 295 297 297 295 293 294 294 295 295 295 295 293 292 292 292 292 292 292 293 293 293 292 292 291 289 289 289 290 291 292 292 294 296 297
303 303 302 303 302 302 303 302 301 300 298 295 293 292 293 293 294 295 296 295 293 292 292 292 292 292 292 292 292 292 289 285 286 286 288 289 290 291 292 293 295 296 297
303 303 303 302 302 302 302 302 301 301 297 294 293 292 292 292 292 294 295 294 291 291 291 292 292 293 294 294 293 287 286 286 286 285 287 290 293 295 296 294 294 294 294
Wind_Speed
6 4 5 6 7 7 7 9 11 11 11 11 11 11 11 10 10 9 10 12 10 10 10 10 12 13 10 8 9 6 6 6 9 10 10 13 14 13 10 9 7 7 8
6 5 5 5 6 6 8 10 11 10 10 10 10 10 11 10 11 12 12 13 13 11 11 12 13 11 12 13 8 10 8 8 7 12 12 11 13 10 8 6 5 6 8
5 3 2 5 5 6 8 10 10 10 10 10 9 10 10 11 12 12 14 14 14 11 10 11 10 13 14 12 12 10 9 7 6 6 9 9 10 8 9 2 4 4 4
2 4 3 4 5 6 7 9 9 9 9 9 9 10 11 11 10 14 15 14 12 11 9 10 10 11 14 14 11 11 11 8 7 8 8 9 9 11 6 5 2 3 4
4 5 5 4 6 5 6 7 8 9 9 9 9 9 9 9 11 14 14 15 11 11 9 10 11 13 16 13 8 11 13 11 10 8 9 10 9 11 11 7 4 2 4
4 4 5 6 6 5 5 6 7 9 10 9 8 9 10 8 13 17 16 14 12 10 10 10 12 11 15 16 16 17 8 10 11 10 7 9 11 9 9 8 7 2 0
4 4 3 5 6 6 5 6 7 8 8 9 9 11 11 7 12 15 20 13 11 10 10 11 12 10 12 16 18 15 8 4 8 11 10 8 10 11 10 10 9 4 2
3 4 4 5 6 6 6 6 6 6 7 8 9 9 8 6 9 14 21 10 8 11 10 9 11 12 14 16 17 14 13 9 9 10 10 9 7 8 9 7 8 4 1
4 5 5 7 7 7 7 7 7 7 6 7 8 9 9 9 7 11 16 12 10 11 11 10 9 10 13 16 16 15 14 11 8 5 8 7 9 7 6 6 9 6 1
4 6 6 7 8 8 8 8 7 7 7 7 8 8 4 9 5 8 11 11 13 12 12 11 7 9 9 12 14 13 13 14 15 14 10 7 8 5 4 6 6 7 4
5 6 6 7 7 7 7 7 7 8 7 8 9 8 7 5 8 4 7 11 11 11 10 9 9 10 13 13 13 11 12 14 14 10 9 7 7 6 7 6 3 4 4
5 6 7 7 6 7 8 8 8 7 8 8 9 9 8 6 2 5 7 8 11 12 12 9 12 16 14 15 11 9 12 14 8 8 7 6 7 6 7 8 4 1 1
5 6 6 8 7 7 8 7 8 7 7 8 8 8 10 10 7 5 8 8 13 12 10 14 18 14 11 10 7 11 12 8 8 8 8 8 8 8 9 5 3 2 2
6 6 6 7 6 7 8 6 7 8 9 9 9 9 10 10 9 12 12 12 13 13 14 12 12 10 8 7 11 7 7 6 6 6 6 7 9 7 7 7 8 4 2
8 7 5 7 6 7 6 6 6 7 7 9 9 10 10 10 12 12 12 11 10 10 13 7 6 6 9 9 8 9 6 7 6 5 5 5 6 6 5 6 6 6 3
6 4 5 7 6 6 7 7 7 4 7 4 5 5 9 8 13 13 12 13 10 12 9 7 7 7 8 8 7 9 6 7 6 6 5 4 5 5 6 6 5 4 3
5 7 7 6 6 7 7 7 9 5 6 8 7 5 3 8 11 10 12 15 7 8 6 9 7 8 9 8 7 6 8 6 8 6 6 5 5 5 5 5 4 4 3
5 6 7 6 6 7 7 7 6 7 8 7 4 5 4 7 8 7 11 11 9 8 6 6 6 6 7 6 6 6 7 7 7 7 6 6 4 5 5 5 5 4 3
6 6 8 6 5 6 6 7 7 8 8 8 8 8 10 10 4 5 10 8 8 7 6 6 6 6 6 6 6 6 6 6 7 7 6 5 4 4 4 5 5 5 4
3 2 8 7 6 7 6 7 8 7 7 8 9 9 11 11 9 10 9 8 8 7 7 7 7 6 6 6 6 5 6 6 6 6 6 5 4 4 5 6 5 5 3
4 4 3 5 6 7 7 6 6 7 8 8 8 6 7 10 8 8 9 7 7 8 8 8 7 6 5 5 6 5 6 6 6 6 6 5 5 5 5 5 6 5 4
4 4 5 5 5 6 7 6 7 8 8 10 9 8 7 8 7 8 9 8 8 7 8 8 7 7 7 7 7 6 6 6 6 6 5 5 5 5 5 5 6 5 4
4 5 4 5 6 4 6 7 7 8 9 9 10 9 9 8 8 7 9 8 8 9 8 8 8 8 7 7 7 6 7 6 6 6 7 6 6 6 5 5 5 5 4
5 5 5 6 6 7 6 7 7 8 8 9 8 9 9 9 9 10 10 9 7 9 9 8 8 11 10 9 7 6 6 6 6 8 10 8 7 6 6 6 6 6 5
4 5 5 5 6 7 6 6 7 8 8 8 8 8 9 9 10 10 10 10 8 10 11 11 8 11 12 16 13 13 12 12 10 9 7 8 9 10 8 6 6 5 5
5 6 5 5 6 6 6 6 7 8 8 7 7 8 8 9 9 11 10 11 9 10 14 10 12 17 18 12 14 17 13 12 11 10 6 4 5 3 1 3 3 3 4
Wind_Direction
62 33 42 20 11 1 350 341 332 323 307 308 306 302 298 301 312 314 316 307 313 321 321 337 343 344 335 339 329 319 282 273 277 288 291 298 299 297 295 303 315 331 337
49 6 30 13 5 1 352 338 337 320 326 323 305 300 301 318 318 319 316 314 314 319 326 340 333 342 342 343 329 322 327 309 287 294 305 313 317 310 302 338 338 356 358
26 350 339 15 354 358 351 348 344 342 334 322 318 317 322 324 321 330 324 313 305 314 331 331 335 340 343 350 333 323 321 317 308 311 322 338 331 348 333 49 339 343 25
8 299 317 334 336 350 345 351 353 352 342 334 332 321 327 326 347 343 328 312 301 319 327 331 351 343 345 353 334 325 330 327 330 343 338 356 346 346 339 339 5 325 338
271 296 338 315 314 327 342 344 354 351 347 339 334 332 335 326 21 342 331 313 308 322 330 338 340 343 344 349 338 328 331 330 341 4 349 347 354 356 348 331 320 320 318
257 258 300 317 313 326 323 332 345 351 359 358 353 347 345 359 5 339 333 313 313 336 329 336 339 341 339 344 334 316 311 335 336 342 3 349 351 345 340 329 323 296 68
274 279 305 327 318 314 311 318 341 346 352 356 357 356 349 1 8 338 331 316 326 343 344 345 331 354 342 340 332 312 312 345 322 317 340 358 335 344 332 334 329 316 350
275 298 327 320 316 316 306 317 325 331 337 352 356 359 347 14 7 342 331 323 324 332 329 332 337 346 11 342 327 324 331 329 349 336 336 337 342 337 331 320 322 318 33
312 319 337 320 315 318 321 323 309 311 324 336 346 359 354 341 27 349 336 335 338 333 329 329 332 339 2 343 329 329 327 328 349 291 278 291 302 272 352 342 360 339 94
337 322 324 326 320 321 328 319 311 296 298 320 330 351 325 344 65 355 346 339 342 337 330 335 114 5 355 338 328 325 330 336 326 330 326 333 319 340 120 33 353 356 342
312 312 320 326 324 319 319 312 304 302 316 310 315 312 297 19 350 340 335 329 348 332 326 323 323 9 339 317 309 330 334 315 314 318 322 322 333 333 342 31 38 3 5
307 308 330 330 318 327 318 308 315 315 308 300 303 309 330 5 29 315 292 288 320 321 316 317 326 330 305 299 295 323 302 296 326 321 318 327 334 340 344 337 356 26 26
314 328 331 324 333 324 310 314 307 322 313 312 319 329 335 356 346 6 322 317 315 316 319 328 300 300 296 310 342 316 299 352 347 338 332 331 329 328 312 316 300 216 300
322 323 334 311 331 326 310 332 335 343 341 330 337 341 339 341 351 347 337 331 337 329 329 308 335 329 324 335 321 331 352 343 342 330 323 320 318 335 333 341 327 323 261
333 328 333 324 331 312 329 335 334 27 11 341 355 336 344 340 356 333 329 336 333 338 313 348 340 346 341 332 14 328 344 329 331 328 327 327 323 327 334 334 336 339 14
309 336 338 313 329 333 332 334 117 108 129 204 242 296 339 35 342 329 328 330 328 344 343 356 9 335 332 356 349 326 343 338 333 333 324 331 326 325 333 325 337 344 344
321 325 322 307 335 335 346 340 337 157 171 183 216 285 292 314 328 343 341 333 306 336 349 348 351 337 342 347 338 335 326 336 326 330 321 328 330 325 321 330 337 336 335
317 223 309 336 331 342 348 347 332 352 346 2 248 333 7 338 346 342 342 329 354 357 346 335 333 333 330 328 326 327 326 326 330 329 319 321 339 330 323 331 332 329 322
327 353 329 327 355 326 348 339 342 4 360 327 346 339 3 350 356 7 348 356 339 332 328 325 325 322 322 321 319 319 316 317 316 310 311 314 334 323 314 317 315 307 307
347 137 275 312 350 357 352 347 6 352 337 356 340 352 351 340 355 359 351 343 333 325 320 320 319 309 312 311 309 308 309 309 305 304 304 301 318 306 302 308 306 306 307
333 321 269 314 2 4 349 3 350 347 2 343 345 31 7 329 350 345 337 330 328 323 318 317 313 308 301 300 300 303 301 296 296 299 299 312 307 300 300 295 292 287 273
343 345 353 357 359 3 348 356 354 360 356 349 349 354 359 339 344 342 333 330 327 314 309 311 311 311 309 307 303 293 290 288 288 288 286 285 283 281 286 288 290 289 287
360 347 347 359 355 330 344 9 358 0 355 359 355 345 342 340 338 338 328 330 323 320 317 316 315 314 310 308 298 291 289 287 288 282 276 274 271 271 271 278 281 281 270
12 353 348 347 19 330 9 353 2 21 8 9 351 342 338 338 336 335 333 335 326 321 319 320 316 317 314 314 305 294 286 286 287 276 270 263 263 263 259 256 261 253 249
14 356 347 354 354 357 356 357 15 12 16 12 345 341 336 336 335 336 334 338 337 326 324 321 318 319 317 319 316 319 312 293 277 271 265 254 254 260 256 250 243 239 221
12 359 2 359 3 356 357 356 12 15 22 1 344 340 337 339 337 333 337 339 332 328 327 325 325 331 330 326 331 321 308 308 305 295 275 258 268 296 3 66 98 118 131